Milwaukee, WI

4:23 PM CDT on May 24, 2018 (GMT -0500)
Gen Mitchell International

Weather History for KMKE - November, 2013

Change the Weather History Date:

Saturday, November 30, 2013

  Actual Average Record
Temperature  
Mean Temperature 36 °F 32 °F  
Max Temperature 47 °F 39 °F 63 °F (1998)
Min Temperature 25 °F 26 °F -4 °F (1947)
Degree Days  
Heating Degree Days 29 33  
Month to date heating degree days 835 782  
Since 1 July heating degree days 1375 1365  
Cooling Degree Days 0 0  
Month to date cooling degree days 0 0  
Year to date cooling degree days 688 641  
Moisture  
Dew Point 26 °F    
Average Humidity 71    
Maximum Humidity 92    
Minimum Humidity 49    
Precipitation  
Precipitation 0.00 in 0.09 in 0.93 in (1934)
Month to date precipitation 2.97 2.71  
Year to date precipitation 38.23 32.72  
Snow  
Snow 0.00 in 0.20 in 10.00 in (1940)
Month to date snowfall 2.0 2.4  
Since 1 July snowfall 2.0 2.7  
Since 1 September snowfall 2.0 2.7  
Snow Depth 0.00 in    
Sea Level Pressure  
Sea Level Pressure 30.16 in    
Wind  
Wind Speed 8 mph (SSW)    
Max Wind Speed 18 mph    
Max Gust Speed 23 mph    
Visibility 9 miles    
Events      
T = Trace of Precipitation, MM = Missing Value Source: NWS Daily Summary

Daily Weather History Graph

Daily Weather History Graph

Search for Another Location

Airport or City:

Astronomy

Nov. 30, 2013 Rise Set
Actual Time 7:02 AM CST 4:18 PM CST
Civil Twilight 6:30 AM CST 4:50 PM CST
Nautical Twilight 5:55 AM CST 5:25 PM CST
Astronomical Twilight 5:21 AM CST 5:59 PM CST
Moon 4:09 AM CST (11/30) 2:45 PM CST (11/30)
Length of Visible Light 10h 19m
Length of Day
9h 16m
Waning Crescent, 7% of the Moon is Illuminated
Nov 30
Waning Crescent
Dec 2
New
Dec 9
First Quarter
Dec 17
Full
Dec 25
Last Quarter

Hourly Weather History & Observations

Time (CST) Temp. Windchill Dew Point Humidity Pressure Visibility Wind Dir Wind Speed Gust Speed Precip Events Conditions
12:52 AM 32.0 °F 22.5 °F 21.0 °F 64% 30.38 in 10.0 mi South 12.7 mph - N/A   Overcast
1:52 AM 32.0 °F 23.6 °F 21.0 °F 64% 30.36 in 10.0 mi South 10.4 mph - N/A   Overcast
2:52 AM 30.0 °F 23.2 °F 21.0 °F 69% 30.34 in 10.0 mi South 6.9 mph - N/A   Overcast
3:52 AM 28.9 °F 23.9 °F 19.9 °F 69% 30.32 in 9.0 mi South 4.6 mph - N/A   Scattered Clouds
4:52 AM 26.1 °F 21.9 °F 19.0 °F 75% 30.29 in 9.0 mi SSE 3.5 mph - N/A   Partly Cloudy
5:52 AM 27.0 °F 18.7 °F 19.9 °F 75% 30.27 in 9.0 mi South 8.1 mph - N/A   Partly Cloudy
6:52 AM 28.9 °F 20.4 °F 21.0 °F 72% 30.25 in 9.0 mi SSW 9.2 mph - N/A   Scattered Clouds
7:52 AM 32.0 °F 23.0 °F 23.0 °F 69% 30.24 in 9.0 mi SSW 11.5 mph - N/A   Scattered Clouds
8:52 AM 35.1 °F 25.5 °F 25.0 °F 67% 30.21 in 9.0 mi SW 15.0 mph - N/A   Mostly Cloudy
9:52 AM 39.0 °F 30.3 °F 27.0 °F 62% 30.20 in 10.0 mi SSW 16.1 mph - N/A   Scattered Clouds
10:52 AM 42.1 °F 34.5 °F 28.0 °F 58% 30.16 in 10.0 mi SW 15.0 mph - N/A   Scattered Clouds
11:52 AM 44.1 °F 37.4 °F 28.0 °F 53% 30.13 in 10.0 mi SW 13.8 mph - N/A   Scattered Clouds
12:52 PM 45.0 °F 38.5 °F 28.0 °F 52% 30.11 in 10.0 mi SW 13.8 mph - N/A   Scattered Clouds
1:52 PM 46.0 °F 39.6 °F 28.0 °F 50% 30.08 in 10.0 mi SSW 15.0 mph - N/A   Partly Cloudy
2:52 PM 46.0 °F 41.0 °F 28.9 °F 51% 30.06 in 10.0 mi SSW 10.4 mph - N/A   Scattered Clouds
3:52 PM 45.0 °F 39.7 °F 28.9 °F 53% 30.05 in 10.0 mi SSW 10.4 mph - N/A   Scattered Clouds
4:52 PM 42.1 °F 39.2 °F 28.9 °F 60% 30.05 in 10.0 mi SSW 4.6 mph - N/A   Scattered Clouds
5:52 PM 42.1 °F 40.2 °F 28.9 °F 60% 30.07 in 10.0 mi West 3.5 mph - N/A   Scattered Clouds
6:52 PM 37.0 °F 34.5 °F 28.0 °F 70% 30.08 in 9.0 mi SW 3.5 mph - N/A   Scattered Clouds
7:52 PM 33.1 °F - 27.0 °F 78% 30.08 in 8.0 mi Calm Calm - N/A   Scattered Clouds
8:52 PM 33.1 °F - 28.0 °F 82% 30.09 in 7.0 mi Calm Calm - N/A   Mostly Cloudy
9:52 PM 28.0 °F - 25.0 °F 88% 30.08 in 7.0 mi Calm Calm - N/A   Scattered Clouds
10:52 PM 30.0 °F - 28.0 °F 92% 30.08 in 7.0 mi Calm Calm - N/A   Mostly Cloudy
11:52 PM 33.1 °F - 28.0 °F 82% 30.06 in 7.0 mi Calm Calm - N/A   Overcast